Location: Unspecified
(35.4200°N, 0.0000°E)
Time: 02:34:04
(UTC+00:00)

SL-08 R/B - Visible Passes

Search period start: 04 April 2026 00:00
Search period end: 14 April 2026 00:00
Orbit: 666 x 730 km, 98.5° (Epoch: 29 March)

Date Brightness Start Highest point End Pass type
(mag) Time Alt. Az. Time Alt. Az. Time Alt. Az.
4 Apr 4.8 19:14:07 10° NE 19:17:04 16° E 19:17:35 16° E visible
4 Apr 4.3 20:50:12 10° N 20:54:51 47° WNW 20:56:22 35° WSW visible
5 Apr 3.7 19:54:00 10° NNE 19:58:38 43° E 19:59:36 38° SE visible
5 Apr 5.9 21:32:36 10° NNW 21:35:52 18° WNW 21:38:23 13° WSW visible
6 Apr 5.2 19:01:00 10° E 19:01:59 11° E 19:02:48 10° ESE visible
6 Apr 3.6 20:35:07 10° N 20:39:58 68° WNW 20:41:36 41° SW visible
7 Apr 4.1 19:39:22 10° NE 19:43:38 30° E 19:44:49 27° ESE visible
7 Apr 5.4 21:17:06 10° NNW 21:21:04 26° WNW 21:23:36 17° WSW visible
8 Apr 3.2 20:20:09 10° NNE 20:25:03 83° ESE 20:26:48 41° S visible
9 Apr 4.6 19:24:56 10° NE 19:28:36 21° E 19:30:00 18° ESE visible
9 Apr 4.8 21:01:47 10° N 21:06:14 36° WNW 21:08:47 22° WSW visible
10 Apr 3.4 20:05:17 10° NNE 20:10:06 57° E 20:11:58 35° SSE visible
10 Apr 6.2 21:44:37 10° NNW 21:47:11 14° WNW 21:49:46 10° W visible
11 Apr 5.0 19:10:55 10° ENE 19:13:31 14° E 19:15:09 12° ESE visible
11 Apr 4.1 20:46:37 10° N 20:51:23 52° WNW 20:53:56 26° SW visible
12 Apr 3.8 19:50:32 10° NNE 19:55:07 39° E 19:57:07 27° SE visible
12 Apr 5.8 21:28:52 10° NNW 21:32:24 20° WNW 21:35:55 10° WSW visible
13 Apr 3.5 20:31:34 10° N 20:36:28 76° WNW 20:39:04 28° SSW visible
